Hourly Data Report for August 14, 2021

ALGONQUIN PARK EAST GATE
ONTARIO
Current Station Operator: ECCC - MSC

45°32'00.000" N
78°16'00.000" W
397.00 m
6080192
71581
TNK

Download Data

Hourly Data (August 2021)
Hourly Data Report for August 14, 2021
TIME
LST
Temp Definition
°C
Dew Point Definition
°C
Rel Hum Definition
%
Precip. Amount Definition
mm

Wind Dir Definition
10's deg

Wind Spd Definition
km/h
Visibility Definition
km
Stn Press Definition
kPa
Hmdx Definition


Wind Chill Definition


Weather Definition


00:00 11.9 10.6 92 0.0 0 1   97.05     LegendNANA
01:00 11.5 10.4 93 0.0 0 1   97.03     LegendNANA
02:00 10.4 9.6 95 0.0   0   97.04     LegendNANA
03:00 9.8 9.3 97 0.0   0   97.08     LegendNANA
04:00 9.0 8.6 97 0.0   0   97.11     LegendNANA
05:00 8.8 8.4 97 0.0   0   97.12     LegendNANA
06:00 8.7 8.3 98 0.0   0   97.21     LegendNANA
07:00 13.9 11.6 86 0.0 30 5   97.28     LegendNANA
08:00 15.7 10.1 70 0.0 30 6   97.34     LegendNANA
09:00 16.7 8.8 60 0.0 31 8   97.41     LegendNANA
10:00 17.1 8.3 56 0.0 28 6   97.44     LegendNANA
11:00 18.3 8.0 51 0.0 31 6   97.47     LegendNANA
12:00 19.0 6.4 44 0.0 29 7   97.48     LegendNANA
13:00 19.3 8.7 50 0.0 28 6   97.50     LegendNANA
14:00 19.1 8.2 49 0.0 32 6   97.50     LegendNANA
15:00 19.3 8.6 50 0.0 32 5   97.52     LegendNANA
16:00 20.1 8.3 47 0.0 26 4   97.51     LegendNANA
17:00 18.8 8.9 53 0.0 30 4   97.54     LegendNANA
18:00 17.6 9.3 58 0.0 31 2   97.53     LegendNANA
19:00 15.2 10.2 72 0.0 0 1   97.54     LegendNANA
20:00 12.3 9.6 84 0.0   0   97.59     LegendNANA
21:00 10.6 9.3 92 0.0   0   97.66     LegendNANA
22:00 9.2 8.3 94 0.0   0   97.71     LegendNANA
23:00 8.1 7.5 95 0.0   0   97.74     LegendNANA

Notes on Data Quality.

Legend

  • E = Estimated
  • M = Missing
  • NA = Not Available*
  • [empty] = Indicates an unobserved value
Date modified: